TimeCDT,TemperatureF,Dew PointF,Humidity,Sea Level PressureIn,VisibilityMPH,Wind Direction,Wind SpeedMPH,Gust SpeedMPH,PrecipitationIn,Events,Conditions,WindDirDegrees,DateUTC
12:14 AM,39.2,35.6,87,29.94,10.0,NW,8.1,-,N/A,,Clear,320,2013-11-02 05:14:00
12:33 AM,39.2,35.6,87,29.94,10.0,NW,8.1,-,N/A,,Mostly Cloudy,310,2013-11-02 05:33:00
12:54 AM,39.2,35.6,87,29.95,10.0,NW,9.2,16.1,N/A,,Scattered Clouds,310,2013-11-02 05:54:00
1:14 AM,39.2,33.8,81,29.96,10.0,NW,11.5,-,N/A,,Clear,310,2013-11-02 06:14:00
1:33 AM,39.2,33.8,81,29.96,10.0,WNW,11.5,17.3,N/A,,Clear,300,2013-11-02 06:33:00
1:54 AM,37.4,33.8,87,29.97,10.0,WNW,11.5,-,N/A,,Clear,300,2013-11-02 06:54:00
2:14 AM,37.4,33.8,87,29.97,10.0,WNW,9.2,-,N/A,,Clear,290,2013-11-02 07:14:00
2:33 AM,37.4,32.0,81,29.98,10.0,WNW,10.4,-,N/A,,Clear,290,2013-11-02 07:33:00
2:54 AM,35.6,32.0,87,29.98,10.0,WNW,8.1,-,N/A,,Clear,290,2013-11-02 07:54:00
3:13 AM,35.6,30.2,81,29.98,10.0,WNW,9.2,-,N/A,,Clear,300,2013-11-02 08:13:00
3:34 AM,35.6,30.2,81,29.98,10.0,WNW,8.1,-,N/A,,Clear,290,2013-11-02 08:34:00
3:54 AM,35.6,30.2,81,29.98,10.0,WNW,6.9,-,N/A,,Clear,290,2013-11-02 08:54:00
4:13 AM,33.8,30.2,87,29.99,10.0,WNW,5.8,-,N/A,,Clear,290,2013-11-02 09:13:00
4:34 AM,33.8,30.2,87,29.99,10.0,WNW,6.9,-,N/A,,Clear,290,2013-11-02 09:34:00
4:54 AM,33.8,30.2,87,29.99,10.0,West,8.1,-,N/A,,Clear,280,2013-11-02 09:54:00
5:13 AM,33.8,30.2,87,30.00,10.0,WNW,6.9,-,N/A,,Clear,290,2013-11-02 10:13:00
5:34 AM,33.8,30.2,87,30.01,10.0,WNW,6.9,-,N/A,,Clear,290,2013-11-02 10:34:00
5:54 AM,33.8,30.2,87,30.02,10.0,West,9.2,-,N/A,,Clear,280,2013-11-02 10:54:00
6:13 AM,33.8,28.4,81,30.02,10.0,West,6.9,-,N/A,,Clear,280,2013-11-02 11:13:00
6:34 AM,33.8,28.4,81,30.03,10.0,West,8.1,-,N/A,,Clear,270,2013-11-02 11:34:00
6:54 AM,32.0,28.4,87,30.03,10.0,West,4.6,-,N/A,,Clear,270,2013-11-02 11:54:00
7:13 AM,32.0,28.4,87,30.03,10.0,West,4.6,-,N/A,,Clear,270,2013-11-02 12:13:00
7:34 AM,32.0,28.4,87,30.03,10.0,West,4.6,-,N/A,,Clear,260,2013-11-02 12:34:00
7:54 AM,32.0,28.4,87,30.03,10.0,West,6.9,-,N/A,,Clear,280,2013-11-02 12:54:00
8:13 AM,33.8,28.4,81,30.04,10.0,West,4.6,-,N/A,,Clear,280,2013-11-02 13:13:00
8:34 AM,33.8,28.4,81,30.04,10.0,West,4.6,-,N/A,,Clear,280,2013-11-02 13:34:00
8:53 AM,35.6,30.2,81,30.04,10.0,WNW,4.6,-,N/A,,Scattered Clouds,290,2013-11-02 13:53:00
9:14 AM,35.6,30.2,81,30.05,10.0,West,3.5,-,N/A,,Scattered Clouds,260,2013-11-02 14:14:00
9:34 AM,35.6,30.2,81,30.05,10.0,WSW,3.5,-,N/A,,Scattered Clouds,240,2013-11-02 14:34:00
9:53 AM,35.6,30.2,81,30.05,10.0,Calm,Calm,-,N/A,,Scattered Clouds,0,2013-11-02 14:53:00
10:14 AM,39.2,30.2,70,30.06,10.0,WNW,5.8,-,N/A,,Clear,290,2013-11-02 15:14:00
10:33 AM,39.2,32.0,75,30.06,10.0,West,4.6,-,N/A,,Clear,280,2013-11-02 15:33:00
10:54 AM,41.0,33.8,76,30.06,10.0,WNW,3.5,-,N/A,,Clear,300,2013-11-02 15:54:00
11:13 AM,42.8,33.8,70,30.07,10.0,WNW,5.8,-,N/A,,Clear,290,2013-11-02 16:13:00
11:34 AM,44.6,33.8,66,30.07,10.0,WNW,4.6,-,N/A,,Clear,300,2013-11-02 16:34:00
11:54 AM,44.6,33.8,66,30.07,10.0,NW,3.5,-,N/A,,Clear,320,2013-11-02 16:54:00
12:13 PM,46.4,33.8,62,30.07,10.0,West,4.6,-,N/A,,Clear,280,2013-11-02 17:13:00
12:34 PM,46.4,35.6,66,30.07,10.0,NW,4.6,-,N/A,,Clear,310,2013-11-02 17:34:00
12:53 PM,46.4,33.8,62,30.07,10.0,Calm,Calm,-,N/A,,Clear,0,2013-11-02 17:53:00
1:14 PM,48.2,33.8,58,30.07,10.0,West,5.8,-,N/A,,Clear,280,2013-11-02 18:14:00
1:34 PM,48.2,33.8,58,30.05,10.0,NW,3.5,-,N/A,,Clear,320,2013-11-02 18:34:00
1:53 PM,48.2,33.8,58,30.04,10.0,West,3.5,-,N/A,,Clear,270,2013-11-02 18:53:00
2:14 PM,50.0,33.8,54,30.04,10.0,West,6.9,-,N/A,,Clear,280,2013-11-02 19:14:00
2:33 PM,50.0,33.8,54,30.04,10.0,NW,5.8,-,N/A,,Clear,320,2013-11-02 19:33:00
2:54 PM,51.8,33.8,50,30.04,10.0,NW,5.8,-,N/A,,Clear,310,2013-11-02 19:54:00
3:14 PM,51.8,33.8,50,-9999,10.0,NNW,3.5,-,N/A,,Clear,340,2013-11-02 20:14:00
3:33 PM,51.8,33.8,50,30.04,10.0,NNW,4.6,-,N/A,,Clear,340,2013-11-02 20:33:00
3:54 PM,51.8,33.8,50,30.04,10.0,NNW,4.6,-,N/A,,Clear,340,2013-11-02 20:54:00
4:14 PM,51.8,33.8,50,30.03,10.0,NNW,3.5,-,N/A,,Clear,330,2013-11-02 21:14:00
4:33 PM,51.8,33.8,50,30.03,10.0,North,3.5,-,N/A,,Clear,10,2013-11-02 21:33:00
4:54 PM,51.8,33.8,50,30.03,10.0,North,3.5,-,N/A,,Clear,350,2013-11-02 21:54:00
5:14 PM,51.8,33.8,50,30.02,10.0,Calm,Calm,-,N/A,,Clear,0,2013-11-02 22:14:00
5:33 PM,50.0,33.8,54,30.02,10.0,Calm,Calm,-,N/A,,Clear,0,2013-11-02 22:33:00
5:54 PM,48.2,33.8,58,30.02,2.5,ENE,3.5,-,N/A,,Haze,70,2013-11-02 22:54:00
6:14 PM,44.6,33.8,66,30.02,1.8,East,4.6,-,N/A,,Haze,90,2013-11-02 23:14:00
6:33 PM,44.6,33.8,66,30.02,2.0,ESE,4.6,-,N/A,,Haze,110,2013-11-02 23:33:00
6:54 PM,42.8,33.8,70,30.02,7.0,ESE,4.6,-,N/A,,Clear,110,2013-11-02 23:54:00
7:14 PM,42.8,33.8,70,30.02,7.0,East,6.9,-,N/A,,Clear,100,2013-11-03 00:14:00
7:33 PM,42.8,33.8,70,30.02,7.0,ESE,5.8,-,N/A,,Clear,110,2013-11-03 00:33:00
7:54 PM,42.8,33.8,70,30.02,1.2,ESE,4.6,-,N/A,,Haze,120,2013-11-03 00:54:00
8:14 PM,41.0,33.8,76,30.02,1.8,ESE,5.8,-,N/A,,Haze,120,2013-11-03 01:14:00
8:33 PM,41.0,32.0,70,30.02,2.0,ESE,5.8,-,N/A,,Haze,120,2013-11-03 01:33:00
8:54 PM,39.2,32.0,75,30.02,1.2,SE,6.9,-,N/A,,Haze,130,2013-11-03 01:54:00
9:14 PM,37.4,32.0,81,30.01,1.2,SE,5.8,-,N/A,,Haze,130,2013-11-03 02:14:00
9:34 PM,37.4,32.0,81,30.01,0.8,SE,4.6,-,N/A,,Haze,140,2013-11-03 02:34:00
9:54 PM,37.4,32.0,81,30.01,1.5,SE,6.9,-,N/A,,Haze,130,2013-11-03 02:54:00
10:13 PM,37.4,32.0,81,30.01,2.5,SE,6.9,-,N/A,,Haze,130,2013-11-03 03:13:00
10:34 PM,37.4,32.0,81,30.01,10.0,SE,5.8,-,N/A,,Clear,130,2013-11-03 03:34:00
10:54 PM,37.4,32.0,81,30.01,10.0,SE,6.9,-,N/A,,Clear,130,2013-11-03 03:54:00
11:13 PM,37.4,32.0,81,30.01,10.0,SE,5.8,-,N/A,,Clear,130,2013-11-03 04:13:00
11:34 PM,35.6,30.2,81,30.00,10.0,SE,6.9,-,N/A,,Clear,130,2013-11-03 04:34:00
11:54 PM,35.6,30.2,81,30.00,10.0,SE,6.9,-,N/A,,Clear,140,2013-11-03 04:54:00